Weather History for KFRI - December, 2012

Change the Weather History Date:

Sunday, December 9, 2012

  Actual Average (KMHK) Record (KMHK)
Temperature  
Mean Temperature 30 °F 32 °F  
Max Temperature 41 °F 43 °F 60 °F (1996)
Min Temperature 19 °F 21 °F -9 °F (2005)
Degree Days  
Heating Degree Days 34 33  
Month to date heating degree days 283  
Since 1 July heating degree days 1358  
Cooling Degree Days 0 0  
Month to date cooling degree days 0  
Year to date cooling degree days 1362  
Moisture  
Dew Point 30 °F    
Average Humidity 83    
Maximum Humidity 100    
Minimum Humidity 44    
Precipitation  
Precipitation 0.00 in 0.03 in 0.37 in (2003)
Month to date precipitation 0.37  
Year to date precipitation 31.90  
Sea Level Pressure  
Sea Level Pressure 29.97 in    
Wind  
Wind Speed 4 mph (NW)    
Max Wind Speed 20 mph    
Max Gust Speed 28 mph    
Visibility 6 miles    
Events      
T = Trace of Precipitation, MM = Missing Value Source: NWS Daily Summary

Daily Weather History Graph

Daily Weather History Graph

Search for Another Location

Airport or City:

Trip Planner

Search our weather history database for the weather conditions in past years. The results will help you decide how hot, cold, wet, or windy it might be!

Date:

Astronomy

Dec. 09, 2012 Rise Set
Actual Time 7:34 AM CST 5:04 PM CST
Civil Twilight 7:04 AM CST 5:34 PM CST
Nautical Twilight 6:31 AM CST 6:07 PM CST
Astronomical Twilight 5:59 AM CST 6:40 PM CST
Moon 3:10 AM CST (12/9) 2:10 PM CST (12/9)
Length of Visible Light 10h 29m
Length of Day
9h 29m
Waning Crescent, 18% of the Moon is Illuminated
Dec 9
Waning Crescent
Dec 13
New
Dec 19
First Quarter
Dec 28
Full
Jan 4
Last Quarter

Hourly Weather History & Observations

Time (CST) Temp. Windchill Dew Point Humidity Pressure Visibility Wind Dir Wind Speed Gust Speed Precip Events Conditions
12:03 AM 41.0 °F - 41.0 °F 100% 29.88 in 4.0 mi Calm Calm - N/A   Light Drizzle
12:10 AM 41.0 °F - 41.0 °F 100% 29.88 in 3.0 mi Calm Calm - N/A   Light Drizzle
12:21 AM 41.0 °F - 41.0 °F 100% 29.88 in 4.0 mi Calm Calm - N/A   Overcast
12:23 AM 41.0 °F - 41.0 °F 100% 29.88 in 4.0 mi Calm Calm - N/A   Overcast
12:25 AM 41.0 °F - 41.0 °F 100% 29.88 in 4.0 mi Calm Calm - N/A   Overcast
12:37 AM 41.0 °F - 41.0 °F 100% 29.88 in 5.0 mi Calm Calm - N/A   Overcast
12:55 AM 40.6 °F - 40.6 °F 100% 29.88 in 5.0 mi Calm Calm - 0.00 in   Overcast
1:55 AM 40.8 °F - 40.8 °F 100% 29.88 in 5.0 mi Calm Calm - N/A   Overcast
1:56 AM 41.0 °F - 41.0 °F 100% 29.88 in 5.0 mi Calm Calm - N/A   Overcast
2:08 AM 41.0 °F - 41.0 °F 100% 29.88 in 4.0 mi Calm Calm - N/A   Overcast
2:14 AM 41.0 °F - 41.0 °F 100% 29.88 in 4.0 mi Calm Calm - N/A   Overcast
2:26 AM 41.0 °F 39.0 °F 41.0 °F 100% 29.88 in 4.0 mi North 3.5 mph - N/A   Overcast
2:33 AM 41.0 °F - 41.0 °F 100% 29.87 in 2.5 mi Calm Calm - N/A   Light Drizzle
2:43 AM 41.0 °F - 41.0 °F 100% 29.87 in 3.0 mi Calm Calm - N/A   Light Drizzle
2:44 AM 41.0 °F - 41.0 °F 100% 29.87 in 3.0 mi Calm Calm - N/A   Overcast
2:49 AM 41.0 °F - 41.0 °F 100% 29.87 in 3.0 mi Calm Calm - N/A   Overcast
2:53 AM 41.0 °F - 41.0 °F 100% 29.87 in 2.5 mi Calm Calm - N/A   Overcast
2:55 AM 40.6 °F - 40.6 °F 100% 29.87 in 2.5 mi Calm Calm - 0.00 in   Overcast
3:07 AM 41.0 °F - 41.0 °F 100% 29.87 in 2.5 mi Calm Calm - N/A   Overcast
3:11 AM 41.0 °F - 41.0 °F 100% 29.87 in 3.0 mi Calm Calm - N/A   Overcast
3:12 AM 41.0 °F - 41.0 °F 100% 29.86 in 2.5 mi Calm Calm - N/A   Overcast
3:22 AM 41.0 °F - 41.0 °F 100% 29.86 in 2.5 mi Calm Calm - N/A   Overcast
3:26 AM 41.0 °F - 41.0 °F 100% 29.87 in 3.0 mi Calm Calm - N/A   Overcast
3:28 AM 41.0 °F - 41.0 °F 100% 29.86 in 3.0 mi Calm Calm - N/A   Overcast
3:33 AM 41.0 °F - 41.0 °F 100% 29.86 in 3.0 mi Calm Calm - N/A   Overcast
3:45 AM 41.0 °F - 41.0 °F 100% 29.87 in 3.0 mi Calm Calm - N/A   Overcast
3:55 AM 40.5 °F - 40.5 °F 100% 29.86 in 3.0 mi Calm Calm - N/A   Overcast
4:36 AM 41.0 °F - 41.0 °F 100% 29.88 in 4.0 mi Calm Calm - N/A   Overcast
4:50 AM 41.0 °F 39.0 °F 41.0 °F 100% 29.88 in 4.0 mi SSW 3.5 mph - N/A   Overcast
4:55 AM 41.0 °F 39.0 °F 41.0 °F 100% 29.88 in 4.0 mi SSW 3.5 mph - N/A   Overcast
5:01 AM 41.0 °F 39.0 °F 41.0 °F 100% 29.88 in 4.0 mi SW 3.5 mph - N/A   Overcast
5:03 AM 41.0 °F - 41.0 °F 100% 29.88 in 4.0 mi Calm Calm - N/A   Overcast
5:17 AM 41.0 °F - 41.0 °F 100% 29.89 in 4.0 mi Calm Calm - N/A   Overcast
5:55 AM 40.5 °F 36.5 °F 40.5 °F 100% 29.91 in 4.0 mi WNW 5.8 mph - N/A   Overcast
6:02 AM 41.0 °F 37.1 °F 41.0 °F 100% 29.91 in 4.0 mi West 5.8 mph - N/A   Overcast
6:39 AM 41.0 °F 37.1 °F 41.0 °F 100% 29.92 in 5.0 mi NW 5.8 mph - N/A   Overcast
6:55 AM 39.7 °F 37.6 °F 39.7 °F 100% 29.92 in 6.0 mi NW 3.5 mph - N/A   Mostly Cloudy
7:55 AM 39.6 °F 34.0 °F 38.7 °F 97% 29.95 in 10.0 mi NNW 8.1 mph - N/A   Overcast
8:55 AM 39.7 °F 34.9 °F 35.1 °F 83% 29.97 in 10.0 mi NW 6.9 mph - N/A   Overcast
9:26 AM 41.0 °F 34.7 °F 33.8 °F 76% 30.00 in 10.0 mi NW 10.4 mph 17.3 mph N/A   Overcast
9:55 AM 36.1 °F 25.5 °F 25.7 °F 66% 30.03 in 10.0 mi NW 19.6 mph 24.2 mph N/A   Overcast
9:58 AM 35.6 °F 27.1 °F 24.8 °F 65% 30.03 in 10.0 mi NW 12.7 mph 24.2 mph N/A   Overcast
10:55 AM 35.4 °F 26.0 °F 20.5 °F 55% 30.04 in 10.0 mi NNW 15.0 mph 20.7 mph N/A   Mostly Cloudy
11:55 AM 32.0 °F 22.1 °F 16.5 °F 53% 30.08 in 10.0 mi NW 13.8 mph 21.9 mph N/A   Overcast
12:55 PM 30.0 °F 19.5 °F 12.9 °F 49% 30.08 in 10.0 mi NW 13.8 mph - N/A   Overcast
1:55 PM 28.2 °F 16.8 °F 9.9 °F 46% 30.08 in 10.0 mi NW 15.0 mph 25.3 mph N/A   Overcast
2:55 PM 28.9 °F 16.5 °F 9.7 °F 45% 30.08 in 10.0 mi WNW 18.4 mph 25.3 mph N/A   Partly Cloudy
3:55 PM 29.1 °F 17.9 °F 9.3 °F 44% 30.09 in 10.0 mi NW 15.0 mph 24.2 mph N/A   Overcast
4:55 PM 28.4 °F 18.0 °F 8.8 °F 44% 30.12 in 10.0 mi NNW 12.7 mph 18.4 mph N/A   Overcast
5:55 PM 27.0 °F 14.3 °F 8.4 °F 46% 30.15 in 10.0 mi NW 17.3 mph 23.0 mph N/A   Mostly Cloudy
6:22 PM 26.6 °F 13.8 °F 8.6 °F 47% 30.15 in 10.0 mi NW 17.3 mph 26.5 mph N/A   Overcast
6:55 PM 25.3 °F 14.1 °F 7.3 °F 47% 30.17 in 10.0 mi NNW 12.7 mph 24.2 mph N/A   Overcast
7:08 PM 24.8 °F 12.4 °F 6.8 °F 46% 30.17 in 10.0 mi NNW 15.0 mph 27.6 mph N/A   Overcast
7:55 PM 23.2 °F 9.4 °F 7.3 °F 51% 30.19 in 10.0 mi NNW 17.3 mph 24.2 mph N/A   Overcast
8:55 PM 22.5 °F 8.5 °F 7.9 °F 54% 30.20 in 10.0 mi NW 17.3 mph 23.0 mph N/A   Overcast
9:55 PM 22.5 °F 9.9 °F 8.8 °F 56% 30.22 in 10.0 mi NNW 13.8 mph 20.7 mph N/A   Overcast
10:39 PM 21.2 °F 7.3 °F 8.6 °F 58% 30.22 in 10.0 mi NW 16.1 mph 21.9 mph N/A   Overcast
10:47 PM 21.2 °F 9.5 °F 8.6 °F 58% 30.22 in 10.0 mi NW 11.5 mph 21.9 mph N/A   Overcast
10:55 PM 20.8 °F 7.9 °F 8.4 °F 59% 30.22 in 10.0 mi NW 13.8 mph 18.4 mph N/A   Overcast
10:59 PM 21.2 °F 7.8 °F 8.6 °F 58% 30.22 in 10.0 mi NW 15.0 mph - N/A   Overcast
11:55 PM 19.6 °F 7.4 °F 8.8 °F 63% 30.22 in 10.0 mi NW 11.5 mph 19.6 mph N/A   Overcast